Theta_e
350 353 353 353 354 354 354 356 356 356 354 358 358 357 356 354 353 353 352 353 353 352 354 350 353 353 352 352 349 352 353 353 350 350 350 350 349 349 347 347 349 348 348
348 352 353 353 354 353 356 357 358 359 356 357 358 358 355 354 353 353 353 354 353 353 354 350 353 354 351 353 355 354 352 349 349 351 349 349 346 348 351 349 347 348 346
350 348 348 350 356 357 359 357 361 363 360 358 357 357 357 356 355 354 355 356 355 355 355 353 353 354 352 352 351 355 354 354 351 352 350 354 353 349 349 349 348 348 347
350 348 349 351 349 358 358 361 361 363 360 361 356 358 359 357 355 355 353 354 354 353 354 354 354 349 351 351 352 352 353 352 350 350 353 352 347 352 351 346 342 349 349
351 350 349 350 352 352 356 361 363 363 361 361 360 359 357 356 357 358 356 354 355 354 350 354 353 352 352 348 349 353 352 353 350 353 351 353 352 352 352 352 349 349 348
351 351 352 353 354 354 354 357 362 362 361 360 360 359 359 357 356 355 353 354 355 356 354 355 354 354 355 350 351 352 353 353 354 353 352 351 350 350 351 353 352 351 350
346 352 355 355 354 354 354 356 358 361 362 361 360 361 361 360 355 353 350 344 350 355 354 354 355 354 356 354 355 353 350 354 352 350 353 352 352 351 351 351 351 352 349
347 351 356 357 357 356 355 355 359 360 361 360 358 357 356 355 354 352 349 347 347 347 346 352 353 353 355 355 354 355 356 350 348 351 353 354 351 352 351 352 350 353 350
347 350 352 354 355 357 357 359 360 360 359 357 353 350 347 348 351 350 347 344 343 349 353 351 352 355 355 356 356 356 357 352 352 352 352 352 350 351 351 352 352 351 355
348 349 351 352 353 354 356 357 358 358 355 352 350 349 345 346 346 347 346 344 348 352 354 355 355 353 355 356 355 356 356 356 355 352 351 353 352 352 353 352 352 351 351
349 349 351 351 352 353 352 353 353 353 354 352 350 349 347 345 344 343 344 345 348 351 353 355 356 355 356 355 356 356 355 355 354 351 353 352 350 351 350 353 353 353 351
351 350 351 351 353 354 354 354 354 353 353 352 352 349 346 342 342 341 342 345 343 351 354 354 354 355 354 353 356 356 355 353 353 352 351 351 351 352 352 350 350 348 353
352 353 355 355 356 358 358 357 356 355 354 354 354 351 348 342 342 346 347 349 348 351 355 354 354 355 354 353 354 356 355 354 356 356 353 351 350 350 353 353 353 353 352
361 361 358 359 358 359 359 359 359 360 360 358 357 355 354 350 350 350 349 348 349 350 349 352 354 354 344 353 354 355 356 355 352 353 351 351 351 350 353 351 353 350 351
356 359 357 357 356 355 353 352 354 357 358 358 359 357 354 355 355 355 355 355 356 355 356 356 352 350 350 346 349 355 353 353 355 350 352 354 353 355 354 354 356 351 352
356 356 354 352 350 347 344 344 345 345 345 346 346 346 346 346 346 347 347 350 354 354 354 354 354 354 349 348 351 351 349 347 349 349 349 348 347 350 352 354 353 351 351
356 354 351 349 346 344 342 342 342 341 341 341 342 342 342 343 343 345 347 347 347 349 351 351 352 351 351 351 351 352 352 350 350 351 350 351 350 349 350 350 351 351 351
350 350 348 346 344 343 342 342 342 343 342 342 341 340 340 340 341 342 342 341 344 346 348 348 347 348 348 349 350 349 349 349 350 352 350 351 348 349 350 349 350 350 351
348 346 345 342 341 340 341 342 341 341 342 341 342 341 341 341 342 342 343 344 343 344 344 342 345 346 347 347 346 345 344 343 347 346 344 348 346 347 346 349 350 350 350
344 342 340 340 340 341 341 342 342 342 344 342 340 338 340 340 342 342 342 340 342 344 342 341 340 342 343 343 346 345 344 344 342 341 345 344 342 342 348 348 348 348 349
343 342 341 340 338 340 339 338 337 338 340 341 339 339 340 341 340 339 339 340 341 342 344 344 344 344 343 343 342 342 343 343 342 339 339 338 339 339 340 349 348 346 346
340 337 337 337 336 336 337 338 341 342 342 340 340 340 340 341 340 341 342 342 342 342 342 342 342 342 342 341 341 342 342 342 340 337 336 336 338 340 341 342 343 347 348
336 336 336 336 335 337 339 340 339 339 339 339 338 338 337 337 337 338 338 339 339 341 341 341 342 339 334 333 333 334 341 343 339 339 338 336 335 336 337 336 337 346 347
336 334 335 336 337 335 336 338 337 337 337 337 337 337 336 335 333 333 333 333 334 335 335 335 336 336 333 331 333 339 342 341 339 339 340 341 340 339 336 339 342 342 345
334 335 336 336 336 335 336 335 335 335 336 336 336 335 334 334 333 332 331 332 332 333 334 333 333 333 332 330 329 328 330 330 332 336 332 337 343 340 341 340 339 341 344
335 335 335 335 336 335 334 334 334 335 336 335 333 332 331 331 332 331 333 333 333 333 331 331 331 330 329 329 329 328 329 329 329 330 332 334 336 341 340 340 339 337 342
Wind_Speed
9 18 17 25 17 22 19 26 18 20 17 14 18 16 16 17 17 17 18 15 13 14 17 17 12 12 12 13 10 9 10 6 13 7 1 8 13 18 19 21 22 24 21
2 10 15 13 29 20 28 19 21 20 23 19 19 19 20 19 22 20 18 21 21 18 19 12 12 13 8 13 10 9 8 10 13 8 6 2 10 20 19 20 22 23 21
2 2 8 11 18 21 20 28 23 23 21 21 21 19 17 17 12 22 20 19 18 16 13 10 14 10 13 13 12 11 11 9 11 6 6 2 4 5 12 19 17 21 26
8 4 7 11 13 23 24 28 25 23 21 20 22 18 18 17 18 21 25 28 20 17 10 12 17 19 17 13 11 14 12 12 13 10 13 11 7 3 1 11 30 21 21
10 3 5 4 5 6 14 21 20 19 16 17 22 21 21 24 22 14 19 17 18 14 10 18 18 19 18 18 15 16 15 13 14 13 10 15 12 16 10 4 13 11 16
11 8 7 7 7 4 6 12 13 10 11 15 18 21 25 26 29 25 9 18 16 20 19 18 21 20 18 17 18 17 15 15 14 13 5 5 7 7 8 4 6 9 14
7 10 8 8 9 8 6 5 6 6 8 11 14 17 21 26 28 32 22 27 29 12 18 18 20 19 18 16 17 18 19 17 16 14 12 13 15 14 15 8 4 3 9
8 10 9 8 7 7 6 4 5 4 5 6 11 18 25 27 24 29 27 20 19 16 14 13 20 15 15 16 18 18 19 22 22 18 14 15 14 10 13 11 6 2 3
11 11 11 10 10 8 6 5 4 3 3 5 7 13 21 22 19 21 18 20 16 23 20 15 19 13 13 16 18 18 18 19 18 20 18 16 17 15 11 7 9 8 2
11 10 9 10 8 8 6 4 3 2 2 4 7 11 14 14 13 6 7 13 13 17 15 11 11 9 13 15 18 19 20 20 20 20 20 18 16 18 13 12 13 15 16
12 10 10 10 9 8 6 5 2 2 3 2 3 7 7 7 4 9 7 8 9 16 18 16 13 13 16 16 19 21 21 19 22 21 20 15 19 18 17 13 10 12 16
13 9 9 9 8 7 4 3 2 3 3 3 1 0 2 6 6 7 10 12 17 18 15 16 15 17 19 17 19 20 20 21 21 23 23 22 18 19 21 20 17 18 15
10 11 9 6 6 7 4 3 2 3 6 0 5 9 8 10 11 14 14 14 13 16 14 15 16 19 19 18 19 20 20 22 21 24 25 23 25 26 19 18 18 11 14
13 9 8 10 8 7 5 6 6 7 6 6 8 6 8 10 12 15 17 16 16 17 19 20 17 14 15 16 17 17 19 22 22 23 24 26 26 27 23 23 21 18 15
8 9 10 7 9 8 8 8 8 8 6 4 4 8 8 8 11 14 15 16 16 16 19 19 19 18 20 18 18 17 18 20 21 21 21 21 21 24 22 22 22 19 17
9 11 8 8 7 7 8 7 8 8 8 7 7 8 9 10 11 12 14 15 14 13 14 15 16 18 19 19 19 19 17 22 21 23 20 21 24 27 26 31 24 22 21
8 10 10 9 7 6 5 5 5 5 8 9 10 10 12 13 13 14 15 14 14 15 14 14 14 15 16 17 18 19 16 16 16 16 18 20 21 22 25 28 23 23 23
10 7 8 13 12 10 9 4 3 4 4 5 6 8 9 13 15 14 14 15 15 14 13 14 14 13 12 12 12 14 16 14 13 14 16 17 22 22 22 23 23 27 26
9 8 7 8 5 2 6 7 4 5 6 8 8 7 8 11 14 15 15 13 14 15 17 17 14 13 14 14 15 15 12 12 15 18 20 18 18 18 20 23 24 25 22
8 5 2 6 12 15 11 9 10 10 12 8 5 8 11 13 16 18 19 20 18 17 18 18 19 20 21 18 19 17 12 13 14 15 18 19 21 22 23 20 19 22 26
7 1 2 5 6 6 5 7 11 12 7 8 10 13 15 16 19 23 21 20 21 20 20 19 22 25 26 26 26 25 23 19 16 15 16 14 15 17 16 25 23 25 29
3 3 3 6 11 11 6 3 8 11 10 12 14 16 17 19 22 24 24 22 21 23 24 24 25 25 28 29 29 30 28 24 19 18 18 16 18 15 19 21 24 27 26
6 6 8 8 7 10 4 1 6 9 11 12 15 18 21 24 26 27 27 26 25 24 23 22 22 18 19 20 20 19 26 24 19 18 17 19 22 21 22 25 26 24 28
10 12 12 10 11 12 11 7 8 8 10 13 16 19 21 23 28 28 27 26 24 23 22 21 18 14 16 19 16 8 13 16 17 19 16 16 15 17 19 21 22 20 22
7 7 11 12 13 13 12 14 16 16 16 17 19 21 23 25 22 22 24 25 25 24 24 24 22 20 21 24 28 29 19 20 16 14 20 18 15 13 14 17 19 18 18
7 8 10 12 12 14 16 18 17 17 18 17 18 21 25 24 20 22 24 24 26 25 23 27 34 29 29 32 33 32 32 33 30 23 21 21 19 17 16 16 18 19 23
Wind_Direction
207 186 202 184 163 194 174 171 180 189 198 208 195 214 231 232 238 225 234 234 205 248 217 229 212 210 224 218 215 197 226 228 216 234 323 254 262 259 248 238 243 223 238
232 181 208 205 176 192 176 163 187 188 197 217 215 213 213 230 231 226 233 230 239 220 213 231 224 223 224 198 218 214 206 245 227 212 176 201 257 253 246 244 241 227 232
353 238 211 257 187 177 178 178 191 191 199 210 224 230 233 237 236 220 223 235 232 224 221 230 237 232 216 219 212 217 218 222 247 256 193 219 229 213 243 259 266 255 235
99 347 341 197 238 184 187 184 188 195 201 216 233 240 228 230 236 220 225 227 228 233 209 228 237 240 235 228 221 228 220 222 250 254 236 231 214 195 128 225 247 259 239
89 35 5 352 156 198 176 175 177 193 210 224 232 244 248 247 245 245 218 215 225 209 212 214 228 234 233 235 234 249 224 225 236 245 238 207 241 250 235 203 221 240 247
105 80 46 64 81 88 144 154 166 191 211 223 235 244 248 246 244 248 270 293 224 195 209 209 219 221 233 236 232 240 237 235 234 256 282 209 218 222 209 229 254 253 264
106 87 83 95 123 126 136 137 151 184 224 245 262 264 264 264 252 230 223 241 281 273 205 219 222 222 224 232 240 240 236 240 241 242 245 248 244 257 248 211 238 243 286
106 103 107 118 129 150 167 157 133 208 226 262 271 271 271 272 253 225 212 207 247 301 287 235 235 219 224 230 233 235 240 238 245 245 243 253 269 255 257 228 207 287 257
119 123 126 123 123 136 143 148 160 193 226 281 323 325 317 295 253 206 231 224 227 264 199 225 243 222 235 232 233 232 239 231 236 241 245 245 250 263 245 241 250 216 251
115 107 104 115 132 125 128 121 121 189 315 353 0 4 15 78 104 136 208 234 258 278 291 243 253 264 245 244 239 235 238 232 238 241 240 236 239 258 263 240 248 248 241
117 109 111 121 116 102 105 112 162 208 240 220 10 21 45 82 87 107 147 226 272 287 293 289 282 264 256 249 242 237 233 240 241 239 237 234 242 259 262 277 248 266 245
109 112 116 114 116 102 113 112 49 337 296 154 191 107 110 157 187 233 227 241 256 267 275 286 285 276 265 256 248 249 241 236 235 236 239 237 236 242 247 257 265 263 256
134 139 108 90 98 82 53 35 9 1 344 247 244 221 224 227 247 260 270 277 284 281 295 299 286 271 273 279 264 261 259 249 242 235 233 230 239 239 238 243 242 263 252
88 88 84 93 84 90 77 54 43 28 17 347 329 335 256 263 274 275 277 281 283 284 289 278 292 282 294 278 275 268 266 266 257 253 245 239 239 240 239 241 247 250 251
107 124 111 105 109 94 80 70 60 56 47 27 355 349 329 312 309 313 314 310 298 287 281 283 285 286 291 306 301 293 285 280 276 268 261 250 246 241 241 246 237 242 238
124 104 110 130 121 116 100 75 62 51 41 34 28 21 17 9 4 358 352 350 345 317 303 295 296 298 299 301 298 307 286 277 279 279 282 274 270 266 256 257 250 242 232
130 141 150 141 138 141 135 113 67 34 16 2 358 5 357 356 357 350 346 344 346 343 339 330 316 302 298 294 292 298 305 291 276 281 287 288 278 271 268 262 258 237 234
136 148 174 153 190 191 133 141 196 203 251 287 291 306 326 333 335 338 336 334 335 330 327 321 317 314 314 305 298 305 305 294 271 266 282 282 282 282 278 269 266 258 249
146 174 175 167 120 210 227 209 232 272 248 269 284 299 309 311 311 313 315 315 316 317 314 311 310 310 304 290 291 291 283 283 269 267 270 271 277 281 286 272 260 263 257
156 164 197 207 217 198 252 190 223 247 256 270 352 341 317 300 301 301 300 303 303 300 301 306 305 303 295 290 285 275 260 270 271 270 266 271 273 275 269 265 250 248 255
108 105 269 289 326 43 11 349 340 322 352 342 329 318 309 304 298 293 295 295 292 287 286 289 288 286 283 277 270 267 262 257 265 264 265 270 275 272 273 254 252 251 254
77 30 351 6 353 352 343 336 350 4 346 335 322 312 310 306 302 306 304 299 291 289 286 282 279 276 274 275 269 260 255 250 254 261 268 268 276 284 284 277 269 258 248
26 356 4 356 322 322 61 352 288 304 301 294 298 300 301 298 295 291 290 288 284 274 271 268 266 278 296 294 298 282 252 240 241 261 275 277 281 284 281 288 273 266 243
16 353 343 340 346 336 340 329 292 295 305 302 300 299 297 296 292 286 283 281 281 280 278 280 278 300 326 326 342 329 250 244 260 269 282 286 291 293 291 288 281 260 246
341 356 354 335 324 330 343 339 329 324 311 300 296 293 288 288 295 298 290 287 287 284 280 282 285 287 291 290 291 290 274 280 285 267 288 278 270 277 279 278 276 263 228
339 307 312 324 335 328 315 310 302 298 296 295 298 302 302 297 305 310 308 304 305 306 305 294 276 269 270 273 274 273 279 285 286 278 269 267 265 256 258 267 263 247 234